Regional Weather Roundup
Issued by NWS Northern Indiana

Home | Current Version | Previous Version | Graphics & Text | Print | Product List | Glossary On
Versions: 1 2 3 4 5 6 7 8 9 10 11 12 13 14 15 16 17 18 19 20 21 22 23 24 25 26 27 28 29 30 31 32 33 34 35 36 37 38 39 40 41 42 43 44 45 46 47 48 49 50
000
ASUS43 KIWX 281010
RWRIWX

KIWX WEATHER ROUNDUP
NATIONAL WEATHER SERVICE NORTHERN INDIANA
500 AM EST SUN DEC 28 2014

NOTE: "FAIR" INDICATES FEW OR NO CLOUDS BELOW 12,000 FEET WITH NO
SIGNIFICANT WEATHER AND/OR OBSTRUCTIONS TO VISIBILITY.

* THESE STATIONS ARE NOT UNDER NWS QUALITY CONTROL. THEY ALSO MAY NOT
  REPORT WEATHER SUCH AS PRECIPITATION OR FOG.

INZ001>027-281100-
NORTHERN INDIANA

CITY           SKY/WX    TMP DP  RH WIND       PRES   REMARKS
VALPARAISO     CLOUDY    30  24  78 W8        30.12R WCI  22
MICHIGAN CITY* CLOUDY    32  23  69 W6        30.11R WCI  26
LAPORTE*       CLOUDY    33  28  80 W7        30.11R WCI  27
KNOX*          CLOUDY    32  25  74 W9        30.10S WCI  24
SOUTH BEND     CLOUDY    34  26  72 NW10      30.09R WCI  26
GOSHEN         CLOUDY    34  28  79 W8        30.06S WCI  27
MONTICELLO*    CLOUDY    31  27  86 NW9       30.13R WCI  23
LOGANSPORT*    CLOUDY    32  28  86 W7        30.13R WCI  26
ROCHESTER*     CLOUDY    34  32  93 W8        30.10S WCI  27
WARSAW*        CLOUDY    32  30  93 W8        30.08R WCI  25
ANGOLA*        CLOUDY    34  28  80 NW5       30.04S WCI  30
FORT WAYNE     CLOUDY    33  30  88 W6        30.08R WCI  28
HUNTINGTON*    CLOUDY    32  27  83 W6        30.09S WCI  26
PERU/GRISSOM   CLOUDY    32  32 100 W8        30.10R WCI  25
MARION*        CLOUDY    32  28  86 W7        30.11R WCI  25

$$
INZ028>050-281100-
CENTRAL INDIANA

CITY           SKY/WX    TMP DP  RH WIND       PRES   REMARKS
LAFAYETTE      CLOUDY    30  26  85 NW9       30.15R WCI  22
KOKOMO*        CLOUDY    32  27  80 NW12        N/A  WCI  23
MUNCIE*        CLOUDY    32  27  81 NW12      30.09S WCI  23
INDIANAPOLIS   CLOUDY    30  27  88 NW7       30.13R WCI  23

$$
MIZ043>046-050>051-056>058-064>065-071>073-077>080-281100-
SOUTHWEST LOWER MICHIGAN

CITY           SKY/WX    TMP DP  RH WIND       PRES   REMARKS
BATTLE CREEK   CLOUDY    35  30  82 W7        30.04R WCI  29
BENTON HARBOR  CLOUDY    32  25  75 NW8       30.09S WCI  25
COLDWATER*     CLOUDY    33  30  86 W8        30.03S WCI  26
HILLSDALE*     CLOUDY    34  31  89 W8        30.01S WCI  27
HOLLAND        CLOUDY    34  26  72 NW13G20   30.07S WCI  25
GRAND RAPIDS   CLOUDY    33  28  81 NW10      30.04S WCI  25
KALAMAZOO      CLOUDY    34  29  82 W10       30.05R WCI  26
STURGIS*       CLOUDY    34  28  80 NW8       30.05R WCI  27
THREE RIVERS*  CLOUDY    34  30  88 NW7       30.06S FOG     WCI  27

$$
OHZ001>008-015>018-024>025-281100-
NORTHWEST OHIO

CITY           SKY/WX    TMP DP  RH WIND       PRES   REMARKS
WAUSEON*       CLOUDY    34  30  86 W8        30.04S WCI  27
DEFIANCE       CLOUDY    35  30  82 CALM      30.06S
FINDLAY        CLOUDY    36  30  79 NW10      30.04R
TOLEDO EXPRESS CLOUDY    34  31  88 W6        30.03F WCI  29
TOLEDO METCALF CLOUDY    36  30  79 W7        30.04S
LIMA           CLOUDY    36  31  82 W9        30.05R

$$
AND FOR LAKE MICHIGAN COASTAL AND OPEN LAKE BUOY OBSERVATIONS

STATION/POSITION TEMP    WIND        PRES    VSBY  WAVE
                 AIR SEA DIR/SP/G                  HT/PER
                 (F)     (DEG/KT/KT) (MB)    (MI)  (FT/S)
CALUMET HARBOR    31     240/  4/  8 1018.6F
MICHIGAN CITY     32     270/ 12/ 16   N/A
SAINT JOSEPH      34     280/ 12/ 14 1020.0R

$$
&&


USA.gov is the U.S. government's official web portal to all federal, state and local government web resources and services.